Ukiah, CA

1:49 AM PDT on June 25, 2018 (GMT -0700)
Ukiah Municipal

Weather History for KUKI - October, 2017

Change the Weather History Date:

Saturday, October 7, 2017

  Actual Average Record
Temperature  
Mean Temperature 64 °F 63 °F  
Max Temperature 85 °F 81 °F 102 °F (1965)
Min Temperature 42 °F 45 °F 34 °F (1927)
Degree Days  
Heating Degree Days 2 3  
Month to date heating degree days 19  
Since 1 July heating degree days 52  
Cooling Degree Days 0 1  
Month to date cooling degree days 12  
Year to date cooling degree days 825  
Growing Degree Days 14 (Base 50)    
Moisture  
Dew Point 39 °F    
Average Humidity 45    
Maximum Humidity 76    
Minimum Humidity 13    
Precipitation  
Precipitation 0.00 in 0.02 in 0.87 in (1981)
Month to date precipitation 0.00 0.07  
Year to date precipitation 34.54 24.04  
Snow  
Snow 0.00 in - - ()
Month to date snowfall 0.0  
Since 1 July snowfall 0.0  
Since 1 September snowfall 0.0  
Snow Depth 0.00 in    
Sea Level Pressure  
Sea Level Pressure 29.91 in    
Wind  
Wind Speed 4 mph (NNW)    
Max Wind Speed 17 mph    
Max Gust Speed 23 mph    
Visibility 10 miles    
Events      
T = Trace of Precipitation, MM = Missing Value Source: NWS Daily Summary

Daily Weather History Graph

Daily Weather History Graph

Search for Another Location

Airport or City:

Astronomy

Oct. 07, 2017 Rise Set
Actual Time 7:14 AM PDT 6:45 PM PDT
Civil Twilight 6:48 AM PDT 7:12 PM PDT
Nautical Twilight 6:17 AM PDT 7:43 PM PDT
Astronomical Twilight 5:46 AM PDT 8:14 PM PDT
Moon 8:28 PM PDT (10/7) 9:14 AM PDT (10/7)
Length of Visible Light 12h 24m
Length of Day
11h 30m
Waning Gibbous, 95% of the Moon is Illuminated
Oct 7
Waning Gibbous
Oct 12
Last Quarter
Oct 19
New
Oct 27
First Quarter
Nov 3
Full

Hourly Weather History & Observations

Time (PDT) Temp. Dew Point Humidity Pressure Visibility Wind Dir Wind Speed Gust Speed Precip Events Conditions
12:56 AM 50.0 °F 37.0 °F 61% 29.97 in 10.0 mi Calm Calm - N/A   Clear
1:56 AM 46.0 °F 36.0 °F 68% 29.97 in 10.0 mi Calm Calm - N/A   Clear
2:56 AM 45.0 °F 37.0 °F 74% 29.96 in 10.0 mi Calm Calm - N/A   Clear
3:56 AM 48.9 °F 35.1 °F 59% 29.96 in 10.0 mi West 3.5 mph - N/A   Clear
4:56 AM 45.0 °F 36.0 °F 71% 29.96 in 10.0 mi Calm Calm - N/A   Clear
5:56 AM 44.1 °F 36.0 °F 73% 29.96 in 10.0 mi Calm Calm - N/A   Clear
6:56 AM 43.0 °F 36.0 °F 76% 29.96 in 10.0 mi Calm Calm - N/A   Clear
7:56 AM 44.1 °F 36.0 °F 73% 29.98 in 10.0 mi Calm Calm - N/A   Clear
8:56 AM 53.1 °F 37.0 °F 55% 29.99 in 10.0 mi Calm Calm - N/A   Clear
9:56 AM 61.0 °F 37.0 °F 41% 29.98 in 10.0 mi Calm Calm - N/A   Clear
10:56 AM 71.1 °F 34.0 °F 26% 29.95 in 10.0 mi Variable 3.5 mph - N/A   Clear
11:56 AM 75.9 °F 36.0 °F 23% 29.93 in 10.0 mi Calm Calm - N/A   Clear
12:56 PM 82.9 °F 37.9 °F 20% 29.89 in 10.0 mi WNW 10.4 mph 17.3 mph N/A   Clear
1:56 PM 82.9 °F 32.0 °F 16% 29.87 in 10.0 mi WNW 13.8 mph 21.9 mph N/A   Clear
2:56 PM 84.0 °F 28.9 °F 14% 29.85 in 10.0 mi NW 12.7 mph - N/A   Clear
3:56 PM 81.0 °F 33.1 °F 18% 29.84 in 10.0 mi NW 10.4 mph 21.9 mph N/A   Clear
4:56 PM 77.0 °F 41.0 °F 28% 29.84 in 10.0 mi North 8.1 mph - N/A   Clear
5:56 PM 73.0 °F 42.1 °F 33% 29.84 in 10.0 mi North 6.9 mph - N/A   Clear
6:56 PM 68.0 °F 45.0 °F 43% 29.84 in 10.0 mi North 9.2 mph - N/A   Clear
7:56 PM 66.0 °F 46.9 °F 50% 29.84 in 10.0 mi NNE 11.5 mph - N/A   Clear
8:56 PM 63.0 °F 46.9 °F 56% 29.85 in 10.0 mi NNE 8.1 mph - N/A   Clear
9:56 PM 59.0 °F 46.9 °F 64% 29.86 in 10.0 mi Calm Calm - N/A   Clear
10:56 PM 60.1 °F 46.0 °F 60% 29.86 in 10.0 mi NE 5.8 mph - N/A   Clear
11:56 PM 57.0 °F 46.0 °F 67% 29.86 in 10.0 mi NNE 5.8 mph - N/A   Clear